EZY1389 LSGG-LEPA

Flight info

Callsign EZY1389
Flight time 1h 21m
Altitude 37000
Route BALSI DCT RETNO DCT TUPOX DCT MTG DCT DIVKO DCT VATIR DCT PIVUS DCT BODEQ DCT VERSO L129 LUNIK
Aircraft A320/M-SDE3FGHIRWY/LB1

Departure

Time 2026-05-07 10:50
Airport Geneva International Airport (LSGG)

Arrival

Time 2026-05-07 12:11
Airport Palma de Mallorca Airport (LEPA)
Time Latitude Longitude Altitude Speed Heading
2026-05-07 10:12 46.23031 6.10569 1393 ft 0 kts 134°
2026-05-07 10:36 46.23042 6.10554 1394 ft 2 kts 134°
2026-05-07 10:37 46.23051 6.10541 1395 ft 0 kts 134°
2026-05-07 10:37 46.23058 6.10528 1395 ft 2 kts 107°
2026-05-07 10:37 46.23058 6.10506 1395 ft 2 kts 71°
2026-05-07 10:37 46.23054 6.10493 1395 ft 0 kts 47°
2026-05-07 10:38 46.23048 6.10486 1395 ft 0 kts 44°
2026-05-07 10:40 46.23050 6.10488 1395 ft 0 kts 44°
2026-05-07 10:40 46.23058 6.10499 1395 ft 2 kts 44°
2026-05-07 10:40 46.23075 6.10523 1395 ft 4 kts 44°
2026-05-07 10:40 46.23093 6.10549 1395 ft 4 kts 44°
2026-05-07 10:41 46.23121 6.10588 1394 ft 6 kts 44°
2026-05-07 10:41 46.23152 6.10633 1393 ft 6 kts 45°
2026-05-07 10:41 46.23185 6.10654 1392 ft 5 kts 337°
2026-05-07 10:41 46.23217 6.10611 1393 ft 5 kts 313°
2026-05-07 10:42 46.23242 6.10575 1393 ft 5 kts 315°
2026-05-07 10:42 46.23270 6.10535 1393 ft 5 kts 316°
2026-05-07 10:42 46.23309 6.10517 1393 ft 6 kts 19°
2026-05-07 10:42 46.23352 6.10572 1392 ft 9 kts 46°
2026-05-07 10:43 46.23407 6.10644 1391 ft 11 kts 41°
2026-05-07 10:43 46.23461 6.10722 1390 ft 11 kts 45°
2026-05-07 10:43 46.23521 6.10809 1389 ft 11 kts 45°
2026-05-07 10:43 46.23582 6.10900 1387 ft 13 kts 46°
2026-05-07 10:44 46.23653 6.11005 1385 ft 15 kts 45°
2026-05-07 10:44 46.23718 6.11099 1384 ft 10 kts 45°
2026-05-07 10:44 46.23774 6.11181 1383 ft 12 kts 45°
2026-05-07 10:44 46.23834 6.11270 1381 ft 12 kts 46°
2026-05-07 10:45 46.23896 6.11362 1379 ft 12 kts 45°
2026-05-07 10:45 46.23956 6.11447 1379 ft 10 kts 45°
2026-05-07 10:45 46.24014 6.11535 1377 ft 13 kts 46°
2026-05-07 10:45 46.24077 6.11628 1375 ft 13 kts 45°
2026-05-07 10:46 46.24142 6.11721 1374 ft 11 kts 45°
2026-05-07 10:46 46.24204 6.11813 1373 ft 13 kts 45°
2026-05-07 10:46 46.24273 6.11915 1372 ft 12 kts 46°
2026-05-07 10:46 46.24339 6.12011 1371 ft 14 kts 45°
2026-05-07 10:47 46.24406 6.12111 1371 ft 12 kts 45°
2026-05-07 10:47 46.24471 6.12204 1370 ft 13 kts 45°
2026-05-07 10:47 46.24540 6.12307 1370 ft 14 kts 45°
2026-05-07 10:47 46.24609 6.12407 1370 ft 13 kts 45°
2026-05-07 10:48 46.24680 6.12509 1370 ft 14 kts 45°
2026-05-07 10:48 46.24741 6.12599 1369 ft 10 kts 45°
2026-05-07 10:48 46.24806 6.12668 1368 ft 12 kts 21°
2026-05-07 10:48 46.24884 6.12705 1368 ft 10 kts 17°
2026-05-07 10:49 46.24961 6.12728 1368 ft 11 kts 345°
2026-05-07 10:49 46.24995 6.12650 1368 ft 7 kts 258°
2026-05-07 10:49 46.24969 6.12603 1368 ft 5 kts 224°
2026-05-07 10:49 46.24851 6.12430 1370 ft 58 kts 226°
2026-05-07 10:50 46.24395 6.11760 1373 ft 126 kts 225°
2026-05-07 10:50 46.23655 6.10673 1459 ft 172 kts 225°
2026-05-07 10:50 46.22807 6.09416 2057 ft 176 kts 226°
2026-05-07 10:50 46.21978 6.08150 2775 ft 178 kts 227°
2026-05-07 10:51 46.21146 6.06835 3422 ft 180 kts 229°
2026-05-07 10:51 46.20278 6.05457 3855 ft 192 kts 226°
2026-05-07 10:51 46.19289 6.04106 4319 ft 202 kts 221°
2026-05-07 10:51 46.18211 6.02681 4673 ft 222 kts 224°
2026-05-07 10:52 46.17054 6.01028 5114 ft 240 kts 225°
2026-05-07 10:52 46.15848 5.99259 5562 ft 258 kts 226°
2026-05-07 10:52 46.14572 5.97355 6075 ft 273 kts 226°
2026-05-07 10:52 46.13259 5.95390 6824 ft 278 kts 226°
2026-05-07 10:53 46.11794 5.93600 7651 ft 279 kts 206°
2026-05-07 10:53 46.09929 5.93059 8473 ft 281 kts 174°
2026-05-07 10:53 46.08067 5.93831 9325 ft 282 kts 160°
2026-05-07 10:53 46.06206 5.94776 10129 ft 285 kts 162°
2026-05-07 10:54 46.04311 5.95639 10776 ft 294 kts 164°
2026-05-07 10:54 46.02316 5.96480 11446 ft 301 kts 165°
2026-05-07 10:54 46.00313 5.97294 12168 ft 305 kts 166°
2026-05-07 10:54 45.98248 5.98100 12900 ft 308 kts 168°
2026-05-07 10:55 45.96131 5.98593 13624 ft 311 kts 176°
2026-05-07 10:55 45.93990 5.98665 14331 ft 312 kts 183°
2026-05-07 10:55 45.91796 5.98544 15014 ft 316 kts 184°
2026-05-07 10:55 45.89601 5.98394 15681 ft 319 kts 185°
2026-05-07 10:56 45.87383 5.98245 16336 ft 323 kts 185°
2026-05-07 10:56 45.85138 5.98101 16981 ft 326 kts 185°
2026-05-07 10:56 45.82866 5.97960 17599 ft 330 kts 185°
2026-05-07 10:56 45.80545 5.97818 18214 ft 334 kts 185°
2026-05-07 10:57 45.78220 5.97690 18808 ft 337 kts 184°
2026-05-07 10:57 45.75857 5.97587 19399 ft 341 kts 184°
2026-05-07 10:57 45.73501 5.97489 19982 ft 344 kts 184°
2026-05-07 10:57 45.71082 5.97389 20576 ft 347 kts 184°
2026-05-07 10:58 45.68690 5.97287 21148 ft 350 kts 185°
2026-05-07 10:58 45.66259 5.97157 21736 ft 353 kts 185°
2026-05-07 10:58 45.63806 5.97012 22287 ft 356 kts 185°
2026-05-07 10:58 45.61330 5.96867 22831 ft 358 kts 185°
2026-05-07 10:59 45.58816 5.96723 23369 ft 361 kts 185°
2026-05-07 10:59 45.56315 5.96578 23865 ft 364 kts 185°
2026-05-07 10:59 45.53785 5.96435 24363 ft 367 kts 185°
2026-05-07 10:59 45.51191 5.96290 24844 ft 370 kts 186°
2026-05-07 11:00 45.48620 5.96026 25316 ft 372 kts 189°
2026-05-07 11:00 45.46074 5.95527 25766 ft 373 kts 193°
2026-05-07 11:00 45.43521 5.94791 26217 ft 375 kts 196°
2026-05-07 11:00 45.40977 5.93993 26653 ft 377 kts 196°
2026-05-07 11:01 45.38425 5.93192 27094 ft 379 kts 196°
2026-05-07 11:01 45.35841 5.92385 27514 ft 381 kts 197°
2026-05-07 11:01 45.33245 5.91573 27926 ft 382 kts 197°
2026-05-07 11:01 45.30652 5.90763 28334 ft 384 kts 197°
2026-05-07 11:02 45.28040 5.89948 28722 ft 386 kts 197°
2026-05-07 11:02 45.25412 5.89130 29043 ft 389 kts 197°
2026-05-07 11:02 45.22754 5.88303 29388 ft 392 kts 197°
2026-05-07 11:02 45.20094 5.87475 29737 ft 394 kts 197°
2026-05-07 11:03 45.17425 5.86649 30061 ft 396 kts 197°
2026-05-07 11:03 45.14723 5.85812 30411 ft 397 kts 197°
2026-05-07 11:03 45.12028 5.84977 30746 ft 399 kts 198°
2026-05-07 11:03 45.09307 5.84136 31041 ft 401 kts 198°
2026-05-07 11:04 45.06584 5.83293 31315 ft 402 kts 198°
2026-05-07 11:04 45.03881 5.82460 31591 ft 403 kts 198°
2026-05-07 11:04 45.01137 5.81613 31900 ft 404 kts 198°
2026-05-07 11:04 44.98373 5.80763 32183 ft 405 kts 198°
2026-05-07 11:05 44.95622 5.79916 32452 ft 406 kts 198°
2026-05-07 11:05 44.92886 5.79075 32710 ft 407 kts 198°
2026-05-07 11:05 44.90107 5.78221 32965 ft 408 kts 198°
2026-05-07 11:05 44.87331 5.77369 33194 ft 410 kts 198°
2026-05-07 11:06 44.84560 5.76518 33440 ft 410 kts 198°
2026-05-07 11:06 44.81746 5.75656 33682 ft 411 kts 198°
2026-05-07 11:06 44.78930 5.74794 33916 ft 412 kts 198°
2026-05-07 11:06 44.76129 5.73938 34135 ft 413 kts 198°
2026-05-07 11:07 44.73336 5.73086 34379 ft 414 kts 198°
2026-05-07 11:07 44.70506 5.72223 34561 ft 415 kts 198°
2026-05-07 11:07 44.67712 5.71370 34740 ft 416 kts 198°
2026-05-07 11:07 44.64899 5.70512 34974 ft 415 kts 198°
2026-05-07 11:08 44.62085 5.69657 35197 ft 414 kts 198°
2026-05-07 11:08 44.59260 5.68798 35376 ft 414 kts 198°
2026-05-07 11:08 44.56441 5.67942 35532 ft 414 kts 198°
2026-05-07 11:08 44.53639 5.67092 35658 ft 416 kts 198°
2026-05-07 11:09 44.50811 5.66236 35783 ft 416 kts 198°
2026-05-07 11:09 44.47978 5.65380 35916 ft 417 kts 198°
2026-05-07 11:09 44.45175 5.64531 36028 ft 418 kts 198°
2026-05-07 11:09 44.42327 5.63671 36139 ft 418 kts 198°
2026-05-07 11:10 44.39502 5.62703 36292 ft 417 kts 200°
2026-05-07 11:10 44.36736 5.61540 36441 ft 416 kts 203°
2026-05-07 11:10 44.34016 5.60173 36585 ft 415 kts 206°
2026-05-07 11:10 44.31359 5.58709 36725 ft 415 kts 206°
2026-05-07 11:11 44.28659 5.57234 36859 ft 416 kts 206°
2026-05-07 11:11 44.25978 5.55772 36968 ft 417 kts 206°
2026-05-07 11:11 44.20574 5.52825 36980 ft 417 kts 206°
2026-05-07 11:12 44.15163 5.49876 36984 ft 417 kts 206°
2026-05-07 11:12 44.09794 5.46953 36993 ft 417 kts 206°
2026-05-07 11:13 44.04385 5.44013 36993 ft 416 kts 206°
2026-05-07 11:13 43.98987 5.41087 36993 ft 416 kts 206°
2026-05-07 11:14 43.93613 5.38177 36978 ft 415 kts 206°
2026-05-07 11:14 43.88316 5.35313 36983 ft 415 kts 206°
2026-05-07 11:15 43.82963 5.32424 36990 ft 416 kts 205°
2026-05-07 11:15 43.77542 5.29503 36978 ft 415 kts 205°
2026-05-07 11:16 43.72187 5.26624 36984 ft 414 kts 205°
2026-05-07 11:16 43.66810 5.23737 36987 ft 414 kts 205°
2026-05-07 11:17 43.61470 5.20878 36993 ft 414 kts 205°
2026-05-07 11:17 43.56117 5.18015 36995 ft 412 kts 205°
2026-05-07 11:18 43.50781 5.15167 36991 ft 413 kts 205°
2026-05-07 11:18 43.45436 5.12320 36996 ft 412 kts 205°
2026-05-07 11:19 43.40198 5.09220 36995 ft 410 kts 210°
2026-05-07 11:19 43.35251 5.05427 36990 ft 407 kts 215°
2026-05-07 11:20 43.30597 5.01113 36992 ft 406 kts 217°
2026-05-07 11:20 43.25931 4.96737 36993 ft 406 kts 217°
2026-05-07 11:21 43.21271 4.92363 36989 ft 406 kts 217°
2026-05-07 11:21 43.16646 4.88027 36993 ft 405 kts 217°
2026-05-07 11:22 43.11984 4.83663 36992 ft 405 kts 217°
2026-05-07 11:22 43.07364 4.79350 37003 ft 404 kts 217°
2026-05-07 11:23 43.02540 4.75401 37001 ft 406 kts 212°
2026-05-07 11:23 42.97618 4.71661 36995 ft 406 kts 212°
2026-05-07 11:24 42.92679 4.67910 36999 ft 406 kts 212°
2026-05-07 11:24 42.87741 4.64173 37002 ft 406 kts 212°
2026-05-07 11:25 42.82830 4.60464 37000 ft 405 kts 212°
2026-05-07 11:25 42.77900 4.56750 36995 ft 404 kts 212°
2026-05-07 11:26 42.72989 4.53055 36987 ft 405 kts 212°
2026-05-07 11:26 42.68079 4.49371 36987 ft 404 kts 212°
2026-05-07 11:27 42.63186 4.45705 36990 ft 403 kts 212°
2026-05-07 11:27 42.58285 4.42038 36996 ft 403 kts 212°
2026-05-07 11:28 42.53392 4.38384 37004 ft 402 kts 212°
2026-05-07 11:28 42.48494 4.34734 36998 ft 402 kts 212°
2026-05-07 11:29 42.43585 4.31083 37001 ft 402 kts 212°
2026-05-07 11:29 42.38682 4.27441 37005 ft 402 kts 212°
2026-05-07 11:30 42.33811 4.23829 37011 ft 401 kts 212°
2026-05-07 11:30 42.28914 4.20204 37007 ft 400 kts 212°
2026-05-07 11:31 42.24042 4.16606 37016 ft 400 kts 212°
2026-05-07 11:31 42.19179 4.13020 37014 ft 400 kts 212°
2026-05-07 11:32 42.11853 4.07631 37016 ft 400 kts 212°
2026-05-07 11:33 42.06988 4.04061 37016 ft 399 kts 212°
2026-05-07 11:33 42.02108 4.00486 37017 ft 399 kts 212°
2026-05-07 11:34 41.97196 3.97071 37019 ft 399 kts 208°
2026-05-07 11:34 41.92035 3.94289 37006 ft 402 kts 203°
2026-05-07 11:35 41.86685 3.92228 37006 ft 404 kts 198°
2026-05-07 11:35 41.81163 3.90831 37009 ft 405 kts 195°
2026-05-07 11:36 41.75610 3.89526 37011 ft 405 kts 195°
2026-05-07 11:36 41.70073 3.88238 37007 ft 405 kts 195°
2026-05-07 11:37 41.64526 3.86958 37004 ft 405 kts 195°
2026-05-07 11:37 41.58968 3.85680 37004 ft 405 kts 195°
2026-05-07 11:38 41.53444 3.84411 36997 ft 404 kts 195°
2026-05-07 11:38 41.47897 3.83141 36992 ft 404 kts 195°
2026-05-07 11:39 41.42374 3.81875 36992 ft 404 kts 195°
2026-05-07 11:39 41.36839 3.80611 36994 ft 403 kts 195°
2026-05-07 11:40 41.31349 3.79359 36994 ft 402 kts 195°
2026-05-07 11:40 41.25835 3.78104 36988 ft 403 kts 195°
2026-05-07 11:41 41.20289 3.76841 36992 ft 402 kts 195°
2026-05-07 11:41 41.14907 3.75170 36993 ft 398 kts 201°
2026-05-07 11:42 41.09705 3.72801 36994 ft 396 kts 205°
2026-05-07 11:42 41.04561 3.70160 36986 ft 396 kts 205°
2026-05-07 11:43 40.99440 3.67538 36991 ft 396 kts 205°
2026-05-07 11:43 40.94313 3.64908 36995 ft 395 kts 205°
2026-05-07 11:44 40.89195 3.62284 36998 ft 395 kts 205°
2026-05-07 11:44 40.84105 3.59676 36699 ft 393 kts 205°
2026-05-07 11:44 40.81571 3.58382 36454 ft 390 kts 205°
2026-05-07 11:45 40.79027 3.57082 36237 ft 387 kts 205°
2026-05-07 11:45 40.76531 3.55809 35921 ft 384 kts 206°
2026-05-07 11:45 40.74049 3.54543 35459 ft 383 kts 206°
2026-05-07 11:45 40.71599 3.53294 34870 ft 385 kts 206°
2026-05-07 11:46 40.69079 3.52009 34216 ft 385 kts 206°
2026-05-07 11:46 40.66625 3.50759 33729 ft 380 kts 206°
2026-05-07 11:46 40.64167 3.49509 33250 ft 375 kts 206°
2026-05-07 11:46 40.61758 3.48285 32784 ft 370 kts 206°
2026-05-07 11:47 40.59372 3.47073 32320 ft 366 kts 206°
2026-05-07 11:47 40.57043 3.45890 31863 ft 361 kts 206°
2026-05-07 11:47 40.54694 3.44698 31404 ft 357 kts 206°
2026-05-07 11:47 40.52409 3.43540 30960 ft 353 kts 206°
2026-05-07 11:48 40.50150 3.42394 30516 ft 348 kts 205°
2026-05-07 11:48 40.47890 3.41253 30072 ft 344 kts 205°
2026-05-07 11:48 40.45607 3.40334 29629 ft 344 kts 199°
2026-05-07 11:48 40.43269 3.39764 29179 ft 344 kts 193°
2026-05-07 11:49 40.40892 3.39535 28733 ft 344 kts 187°
2026-05-07 11:49 40.38495 3.39597 28317 ft 342 kts 185°
2026-05-07 11:49 40.36159 3.39717 27917 ft 338 kts 184°
2026-05-07 11:49 40.33819 3.39846 27505 ft 335 kts 184°
2026-05-07 11:50 40.31504 3.39974 27096 ft 332 kts 184°
2026-05-07 11:50 40.29214 3.40103 26685 ft 329 kts 184°
2026-05-07 11:50 40.26933 3.40231 26276 ft 326 kts 184°
2026-05-07 11:50 40.24698 3.40358 25865 ft 323 kts 184°
2026-05-07 11:51 40.22458 3.40484 25449 ft 321 kts 184°
2026-05-07 11:51 40.20222 3.40611 25035 ft 320 kts 184°
2026-05-07 11:51 40.18018 3.40735 24620 ft 318 kts 184°
2026-05-07 11:51 40.15819 3.40858 24193 ft 317 kts 184°
2026-05-07 11:52 40.13622 3.40983 23769 ft 316 kts 184°
2026-05-07 11:52 40.11435 3.41107 23351 ft 314 kts 184°
2026-05-07 11:52 40.09259 3.41228 22930 ft 313 kts 184°
2026-05-07 11:52 40.07069 3.41350 22508 ft 313 kts 184°
2026-05-07 11:53 40.04932 3.41468 22098 ft 312 kts 183°
2026-05-07 11:53 40.02753 3.41588 21678 ft 312 kts 183°
2026-05-07 11:53 40.00595 3.41709 21268 ft 312 kts 182°
2026-05-07 11:53 39.98433 3.41832 20847 ft 311 kts 182°
2026-05-07 11:54 39.96257 3.41953 20423 ft 311 kts 182°
2026-05-07 11:54 39.94091 3.42075 20019 ft 311 kts 181°
2026-05-07 11:54 39.91939 3.42195 19599 ft 311 kts 181°
2026-05-07 11:54 39.89793 3.42316 19185 ft 311 kts 180°
2026-05-07 11:55 39.87618 3.42438 18757 ft 312 kts 180°
2026-05-07 11:55 39.85439 3.42562 18337 ft 312 kts 180°
2026-05-07 11:55 39.83283 3.42684 17932 ft 312 kts 180°
2026-05-07 11:55 39.81115 3.42807 17523 ft 312 kts 180°
2026-05-07 11:56 39.78933 3.42930 17109 ft 312 kts 179°
2026-05-07 11:56 39.76780 3.43051 16697 ft 312 kts 179°
2026-05-07 11:56 39.74625 3.43172 16284 ft 313 kts 179°
2026-05-07 11:56 39.72425 3.43238 15827 ft 313 kts 186°
2026-05-07 11:57 39.70371 3.42449 15357 ft 313 kts 210°
2026-05-07 11:57 39.68750 3.40623 14915 ft 314 kts 233°
2026-05-07 11:57 39.67683 3.38150 14473 ft 315 kts 243°
2026-05-07 11:57 39.66718 3.35592 14029 ft 316 kts 243°
2026-05-07 11:58 39.65754 3.33050 13592 ft 316 kts 242°
2026-05-07 11:58 39.64785 3.30518 13159 ft 315 kts 242°
2026-05-07 11:58 39.63805 3.27976 12780 ft 312 kts 242°
2026-05-07 11:58 39.62849 3.25495 12459 ft 307 kts 242°
2026-05-07 11:59 39.61901 3.23041 12143 ft 303 kts 242°
2026-05-07 11:59 39.60955 3.20595 11746 ft 301 kts 242°
2026-05-07 11:59 39.60027 3.18200 11370 ft 298 kts 242°
2026-05-07 11:59 39.59102 3.15809 10996 ft 296 kts 242°
2026-05-07 12:00 39.58186 3.13446 10606 ft 294 kts 242°
2026-05-07 12:00 39.57270 3.11084 10236 ft 291 kts 242°
2026-05-07 12:00 39.56366 3.08757 9871 ft 289 kts 242°
2026-05-07 12:00 39.55474 3.06463 9491 ft 287 kts 242°
2026-05-07 12:01 39.54577 3.04156 9114 ft 286 kts 242°
2026-05-07 12:01 39.53690 3.01875 8746 ft 285 kts 242°
2026-05-07 12:01 39.52797 2.99582 8373 ft 284 kts 242°
2026-05-07 12:01 39.51916 2.97322 7995 ft 283 kts 242°
2026-05-07 12:02 39.51034 2.95057 7605 ft 281 kts 242°
2026-05-07 12:02 39.50159 2.92815 7230 ft 279 kts 242°
2026-05-07 12:02 39.49285 2.90578 6893 ft 278 kts 242°
2026-05-07 12:02 39.48414 2.88348 6570 ft 277 kts 242°
2026-05-07 12:03 39.47548 2.86132 6172 ft 277 kts 242°
2026-05-07 12:03 39.46678 2.83911 5826 ft 276 kts 242°
2026-05-07 12:03 39.45812 2.81699 5470 ft 275 kts 242°
2026-05-07 12:03 39.44946 2.79488 5110 ft 275 kts 242°
2026-05-07 12:04 39.44093 2.77301 4758 ft 275 kts 244°
2026-05-07 12:04 39.43460 2.74962 4412 ft 275 kts 256°
2026-05-07 12:04 39.43151 2.72534 4059 ft 275 kts 262°
2026-05-07 12:04 39.42933 2.70089 3713 ft 274 kts 263°
2026-05-07 12:05 39.42724 2.67639 3369 ft 274 kts 263°
2026-05-07 12:05 39.42509 2.65218 3032 ft 273 kts 263°
2026-05-07 12:05 39.42289 2.62820 2884 ft 264 kts 263°
2026-05-07 12:05 39.42071 2.60497 2777 ft 254 kts 263°
2026-05-07 12:06 39.41878 2.58285 2635 ft 246 kts 268°
2026-05-07 12:06 39.42253 2.56177 2324 ft 242 kts 307°
2026-05-07 12:06 39.43493 2.54933 2279 ft 220 kts 350°
2026-05-07 12:06 39.44926 2.55006 2288 ft 200 kts 22°
2026-05-07 12:07 39.46147 2.55686 2278 ft 184 kts 33°
2026-05-07 12:07 39.47214 2.56537 2316 ft 171 kts 41°
2026-05-07 12:07 39.48043 2.57515 2332 ft 151 kts 52°
2026-05-07 12:07 39.48652 2.58500 2200 ft 133 kts 57°
2026-05-07 12:08 39.49182 2.59455 2023 ft 130 kts 59°
2026-05-07 12:08 39.49684 2.60431 1849 ft 129 kts 62°
2026-05-07 12:08 39.50161 2.61410 1682 ft 128 kts 61°
2026-05-07 12:08 39.50625 2.62387 1513 ft 128 kts 62°
2026-05-07 12:09 39.51091 2.63379 1347 ft 128 kts 60°
2026-05-07 12:09 39.51557 2.64369 1181 ft 128 kts 62°
2026-05-07 12:09 39.52018 2.65351 1018 ft 128 kts 61°
2026-05-07 12:09 39.52480 2.66331 853 ft 127 kts 60°
2026-05-07 12:10 39.52938 2.67307 690 ft 127 kts 60°
2026-05-07 12:10 39.53403 2.68294 525 ft 127 kts 58°
2026-05-07 12:10 39.53857 2.69266 367 ft 127 kts 59°
2026-05-07 12:10 39.54321 2.70247 215 ft 126 kts 60°
2026-05-07 12:11 39.54779 2.71215 40 ft 124 kts 57°
2026-05-07 12:11 39.55187 2.72071 18 ft 90 kts 59°
2026-05-07 12:11 39.55426 2.72580 12 ft 41 kts 59°
2026-05-07 12:11 39.55492 2.72860 18 ft 24 kts 86°
2026-05-07 12:12 39.55495 2.73000 19 ft 12 kts 88°
2026-05-07 12:12 39.55498 2.73115 20 ft 12 kts 90°
2026-05-07 12:12 39.55520 2.73221 23 ft 12 kts 59°
2026-05-07 12:12 39.55564 2.73314 24 ft 12 kts 59°
2026-05-07 12:13 39.55610 2.73412 24 ft 13 kts 58°
2026-05-07 12:13 39.55605 2.73511 25 ft 11 kts 143°
2026-05-07 12:13 39.55542 2.73562 28 ft 9 kts 148°
2026-05-07 12:13 39.55494 2.73600 30 ft 7 kts 149°
2026-05-07 12:14 39.55450 2.73634 33 ft 6 kts 148°
2026-05-07 12:14 39.55419 2.73659 36 ft 5 kts 150°
2026-05-07 12:14 39.55391 2.73679 39 ft 4 kts 149°
2026-05-07 12:14 39.55360 2.73705 41 ft 6 kts 148°
2026-05-07 12:15 39.55319 2.73738 44 ft 7 kts 148°
2026-05-07 12:15 39.55267 2.73778 47 ft 9 kts 149°
2026-05-07 12:15 39.55210 2.73821 49 ft 8 kts 163°
2026-05-07 12:15 39.55194 2.73819 49 ft 0 kts 205°
2026-05-07 12:16 39.55179 2.73803 50 ft 5 kts 225°
2026-05-07 12:16 39.55172 2.73748 50 ft 7 kts 293°
2026-05-07 12:16 39.55174 2.73683 51 ft 7 kts 242°
2026-05-07 12:16 39.55140 2.73641 50 ft 5 kts 193°
2026-05-07 12:17 39.55102 2.73633 49 ft 4 kts 189°
2026-05-07 12:17 39.55083 2.73630 48 ft 0 kts 188°